Location: Eymir
(36.7333°N, 29.7833°E)
Time: 07:44:35
(UTC+00:00)

ISS - Visible Passes

Search period start: 08 March 2026 00:00
Search period end: 18 March 2026 00:00
Orbit: 416 x 427 km, 51.6° (Epoch: 7 March)

Date Brightness Start Highest point End Pass type
(mag) Time Alt. Az. Time Alt. Az. Time Alt. Az.
8 Mar -1.2 02:52:48 11° S 02:52:48 11° S 02:53:01 10° S visible
8 Mar -1.0 17:52:24 10° SSW 17:52:41 12° SSW 17:52:41 12° SSW visible
9 Mar -2.4 17:06:00 10° S 17:08:42 22° SE 17:08:43 22° SE visible
10 Mar -2.7 17:54:56 10° WSW 17:57:37 46° W 17:57:37 46° W visible
11 Mar -3.9 17:07:49 10° SW 17:11:12 79° SE 17:13:17 22° NE visible
11 Mar -0.1 18:46:14 10° WNW 18:46:19 10° WNW 18:46:19 10° WNW visible
12 Mar -1.6 17:58:23 10° W 18:01:06 22° NNW 18:01:47 20° NNW visible
13 Mar -2.1 17:10:44 10° W 17:13:50 33° NW 17:16:57 10° NNE visible
14 Mar -0.8 18:02:48 10° NW 18:04:03 12° NNW 18:05:11 10° N visible
15 Mar -1.0 17:14:31 10° WNW 17:16:37 15° NNW 17:18:44 10° NNE visible
